map of LIO home
LIO - Airport
Location
City:  Puerto Limón, Limón, Costa Rica
Name:Puerto Limón International Airport
ICAO:MRLM
IATA:LIO

Details
Type:Airport (Aerodrome, Airfield)
Use:Public/Civil, International (customs port of entry)
Latitude:9°57'29"N (9.958056)
Longitude:83°01'19"W (-83.021943)
Elevation:7 ft (2 m)
Variation:2.57°W (WMM2015 magnetic declination)
-0.15° annual change
Runways:1
Longest:5906 × 98 ft (1800 × 30 m)

Time
Time Zone:UTC-6
Local Time:

Weather
METAR:MRLM 181400Z 25004KT CAVOK 25/21 A2998
TAF:MRLM 172300Z 1800/1824 09005KT 9999 FEW030 TX30/1819Z TN21/1811Z
BECMG 1802/1804 24005KT
BECMG 1814/1816 07006KT

Related Locations
Nearby:
Farthest:CCK: 12276 mi / 19757 km
West Island (Pulau Panjang) [Cocos (Keeling) Islands], CC

Find:

   beyond  
but within

Other Information
Maps:
NOTAMs:
Links:
Sources:

  
  • flag of Costa Rica
  

Sectional Chart

Flight Planning
at skyvector.com

Satellite Image

Google Maps Satellite view

 

Copyright © 2004-2018 Karl L. Swartz. All rights reserved.
The Great Circle Mapper name and logo are trademarks of the Great Circle Mapper.
All other trademarks mentioned herein belong to their respective owners.
Please see credits for attibutions and further copyright information.

  Follow gcmap on Facebook Follow gcmap on Twitter Follow gcmap on Google+ GCmap on LinkedIn

hCard Microformat

Geo Microformat